[[{"header":{"parameterUnit":"m.s-1","parameterCategory":1,"la1":30.2991,"la2":30.254,"lo1":-89.0895,"lo2":-89.0444,"dy":0.0017,"dx":0.0017,"nx":28,"ny":28,"refTime":"2025-09-04T03:00:00:Z","depth":0,"parameterNumber":2,"parameterNumberName":"U-component_of_WINDS"},"data":[0,0,0,0,0,0,0,0,0,0,0,0,0,0,0,0,0,0,0,0,0,0,0,0,0,0,0,0,0,0,0,0,0,0,0,0,0,0,0,0,0,0,0,0,0,0,0,0,0,0,0,0,0,0,0,0,0,0,1.1069,1.1069,0,1.1041,1.104,1.104,1.105,1.105,1.1051,1.1051,1.102,1.1019,1.1017,0,0,0,0,0,0,0,0,0,0,0,0,0,1.1131,1.113,1.1069,1.1069,1.1069,1.1041,1.104,1.104,1.1049,1.105,1.1051,1.1052,1.102,1.1019,1.1017,0,0,0,0,0,0,0,0,0,0,0,0,0,1.1103,1.1129,1.1069,1.107,1.107,1.1041,1.104,1.104,1.1049,1.105,1.1051,1.1052,1.1021,1.1019,1.1017,1.0985,0,0,1.101,1.1009,0,0,0,0,0,0,0,0,1.1105,1.1101,1.107,1.107,1.107,1.105,1.1051,1.1021,1.1049,1.1057,1.1051,1.1052,1.1029,1.1026,1.1019,1.0983,1.0982,1.101,1.1009,1.1008,1.1007,0,0,0,0,0,0,0,1.1107,1.1102,1.1058,1.107,1.1069,1.1071,1.1068,1.1045,1.1038,1.1056,1.1057,1.1054,1.1029,1.1021,1.1018,1.0982,1.101,1.1008,1.1007,1.1006,1.0919,1.0918,0,0,0,0,0,0,1.1109,1.1104,1.1059,1.1057,1.109,1.1069,1.1066,1.1055,1.1038,1.1037,1.1053,1.1054,1.1024,1.1021,1.1017,1.0979,1.1008,1.1006,1.1005,1.092,1.0919,1.0918,0,0,0,0,0,0,1.111,1.1105,1.106,1.1081,1.1075,1.1067,1.1055,1.1054,1.1046,1.1036,1.1034,1.1046,1.1025,1.102,1.0993,1.0978,1.1005,1.1003,1.0921,1.092,1.0918,1.0901,0,0,0,0,0,0,1.1112,1.1105,1.1093,1.108,1.1074,1.1037,1.1054,1.1053,1.1042,1.1044,1.1029,1.1027,1.1025,1.0996,1.0991,1.0975,1.1001,1.0922,1.092,1.0919,1.0903,1.0899,1.0896,0,0,0,0,0,1.1114,1.1089,1.1093,1.1087,1.1059,1.1036,1.1032,1.1031,1.1041,1.1029,1.1022,1.1027,1.098,1.0993,1.0987,1.0971,1.0923,1.0921,1.0919,1.0905,1.09,1.0896,0,0,0,0,0,0,1.11,1.1087,1.1091,1.1061,1.105,1.1037,1.1022,1.1026,1.101,1.1012,1.1011,1.1007,1.098,1.0973,1.0987,1.0939,1.0953,1.095,1.0945,1.094,1.0937,1.0939,1.1,0,0,0,0,0,1.1093,1.1076,1.1066,1.104,1.1035,1.1029,1.1019,1.1019,1.1007,1.1002,1.0993,1.0981,1.0963,1.0951,1.0934,1.0902,1.0899,1.0888,1.0885,1.0882,1.0878,1.0861,1.0856,1.091,1.091,1.091,0,0,1.1079,1.107,1.1059,1.1037,1.1028,1.101,1.1025,1.1005,1.0991,1.0998,1.0973,1.0966,1.0952,1.0922,1.0909,1.0916,1.0863,1.0879,1.0877,1.0875,1.0858,1.0853,1.0849,1.0908,1.0909,1.0909,0,0,1.1044,1.1036,1.1014,1.1005,1.0991,1.0988,1.0983,1.097,1.0967,1.0941,1.0946,1.093,1.0899,1.0889,1.088,1.0842,1.0846,1.0837,1.0818,1.0801,1.0797,1.0793,1.0779,1.0775,1.0834,1.0834,1.0834,0,1.1028,1.1001,1.1002,1.0982,1.0972,1.0979,1.0956,1.0947,1.0929,1.0921,1.093,1.0892,1.0883,1.0851,1.0842,1.0835,1.0828,1.0838,1.0798,1.0794,1.079,1.0777,1.0772,1.0833,1.0833,1.0833,1.0833,0,1.0982,1.0964,1.0947,1.093,1.0919,1.0898,1.0895,1.0883,1.0884,1.088,1.0854,1.0844,1.0825,1.0818,1.0818,1.0786,1.0791,1.0798,1.0812,1.0784,1.0772,1.0767,1.0831,1.0831,1.0832,1.0832,0,0,1.0936,1.092,1.0914,1.0907,1.0893,1.0879,1.0858,1.0841,1.083,1.0818,1.08,1.0775,1.0782,1.0771,1.0771,1.0757,1.0728,1.0766,1.0766,1.0759,1.0691,1.0685,1.0679,1.0731,1.073,1.0729,1.0692,0,1.0899,1.0864,1.0864,1.0831,1.0814,1.082,1.0802,1.0792,1.0788,1.0772,1.0767,1.075,1.076,1.0754,1.074,1.0734,1.0714,1.0737,1.0714,1.0713,1.0716,1.0673,1.0666,1.0632,1.0687,1.0687,1.0686,0,1.0852,1.0839,1.0804,1.0794,1.0786,1.077,1.0755,1.074,1.0728,1.0726,1.0715,1.0718,1.0696,1.0712,1.0682,1.0698,1.0688,1.0684,1.0683,1.068,1.0697,1.0668,1.0621,1.0616,1.0678,1.0679,1.068,0,1.0822,1.0795,1.0771,1.0764,1.0751,1.074,1.0734,1.0723,1.0713,1.0699,1.0693,1.0676,1.0667,1.0654,1.0652,1.0664,1.0622,1.0638,1.062,1.062,1.061,1.061,1.056,1.0605,1.0605,1.0605,1.0605,0,1.0781,1.0759,1.0757,1.0742,1.0718,1.0719,1.0695,1.069,1.0681,1.0664,1.0669,1.0654,1.0652,1.0637,1.0635,1.061,1.0606,1.0604,1.0603,1.0603,1.0603,1.0596,1.0598,1.0604,1.0604,1.0604,1.0604,0,1.0742,1.074,1.0714,1.0705,1.0702,1.0684,1.0676,1.0662,1.0659,1.0638,1.0633,1.0628,1.061,1.0607,1.0585,1.0584,1.0554,1.0557,1.0559,1.0559,1.0541,1.0542,1.0483,1.0475,1.0526,1.0526,1.0525,0,1.0716,1.0699,1.0689,1.0679,1.0672,1.0656,1.0646,1.0646,1.0635,1.0621,1.0608,1.0591,1.0577,1.0547,1.0541,1.0524,1.0526,1.0506,1.0523,1.0523,1.0525,1.0526,1.0524,1.0503,1.0502,1.0502,1.0501,0,1.0669,1.0669,1.0655,1.064,1.0629,1.0617,1.0606,1.0597,1.0596,1.0583,1.0565,1.0554,1.0533,1.0515,1.0499,1.0492,1.0496,1.0497,1.0491,1.049,1.0492,1.049,1.0549,1.0498,1.0498,1.0498,1.0498,1.0499,1.0636,1.0622,1.0612,1.0596,1.0588,1.0578,1.0564,1.056,1.0545,1.0528,1.0529,1.0509,1.0498,1.0476,1.0469,1.0453,1.0459,1.0451,1.0449,1.0447,1.0445,1.0495,1.045,1.045,1.045,1.045,1.045,0,1.0589,1.0584,1.0569,1.0554,1.0541,1.0548,1.0536,1.0525,1.0507,1.0497,1.0484,1.0463,1.0446,1.0439,1.0422,1.0411,1.0412,1.0406,1.0407,1.0405,1.0441,1.0447,1.0405,1.0405,1.0405,1.0405,1.0405,1.0405,1.0563,1.054,1.0539,1.0512,1.0506,1.0487,1.048,1.0471,1.0463,1.044,1.0426,1.0422,1.0413,1.0396,1.038,1.0379,1.0372,1.0365,1.0364,1.0398,1.0402,1.0407,1.0412,1.0364,1.0364,1.0329,1.0329,1.0329]},{"header":{"parameterUnit":"m.s-1","parameterCategory":1,"la1":30.2991,"la2":30.254,"lo1":-89.0895,"lo2":-89.0444,"dy":0.0017,"dx":0.0017,"nx":28,"ny":28,"refTime":"2025-09-04T03:00:00:Z","depth":0,"parameterNumber":3,"parameterNumberName":"V-component_of_WINDS"},"data":[0,0,0,0,0,0,0,0,0,0,0,0,0,0,0,0,0,0,0,0,0,0,0,0,0,0,0,0,0,0,0,0,0,0,0,0,0,0,0,0,0,0,0,0,0,0,0,0,0,0,0,0,0,0,0,0,0,0,-0.3566,-0.3565,0,-0.3542,-0.3542,-0.3541,-0.3508,-0.3508,-0.3507,-0.3506,-0.3482,-0.3482,-0.3482,0,0,0,0,0,0,0,0,0,0,0,0,0,-0.3583,-0.3583,-0.3566,-0.3565,-0.3565,-0.3542,-0.3542,-0.3541,-0.3508,-0.3507,-0.3507,-0.3506,-0.3482,-0.3482,-0.3482,0,0,0,0,0,0,0,0,0,0,0,0,0,-0.3569,-0.3583,-0.3566,-0.3546,-0.3544,-0.3542,-0.3542,-0.3541,-0.3508,-0.3507,-0.3507,-0.3506,-0.3483,-0.3482,-0.3482,-0.3498,0,0,-0.3482,-0.3482,0,0,0,0,0,0,0,0,-0.357,-0.3568,-0.3549,-0.3547,-0.3545,-0.3527,-0.3539,-0.3527,-0.3509,-0.3522,-0.3506,-0.3505,-0.3498,-0.3497,-0.3494,-0.3497,-0.3496,-0.3482,-0.3482,-0.3482,-0.3481,0,0,0,0,0,0,0,-0.3571,-0.3569,-0.3556,-0.3549,-0.3546,-0.3538,-0.3535,-0.3536,-0.3515,-0.3521,-0.3518,-0.3516,-0.3497,-0.3494,-0.3493,-0.3496,-0.3482,-0.3482,-0.3481,-0.3481,-0.3512,-0.3513,0,0,0,0,0,0,-0.3575,-0.357,-0.3557,-0.3556,-0.3555,-0.3539,-0.3535,-0.3534,-0.3515,-0.3511,-0.3516,-0.3514,-0.3495,-0.3493,-0.3492,-0.351,-0.3482,-0.3481,-0.3481,-0.3511,-0.3512,-0.3513,0,0,0,0,0,0,-0.3575,-0.3574,-0.3558,-0.3562,-0.356,-0.3539,-0.3538,-0.3534,-0.3531,-0.3512,-0.3508,-0.3518,-0.3494,-0.3492,-0.3497,-0.3509,-0.3481,-0.3481,-0.351,-0.3511,-0.3513,-0.3547,0,0,0,0,0,0,-0.3576,-0.3574,-0.358,-0.3563,-0.3559,-0.3563,-0.3538,-0.3534,-0.3531,-0.3528,-0.3512,-0.3509,-0.3493,-0.3498,-0.3497,-0.3508,-0.3481,-0.3509,-0.3511,-0.3512,-0.3544,-0.3549,-0.3553,0,0,0,0,0,-0.3576,-0.359,-0.358,-0.3579,-0.3566,-0.3564,-0.3562,-0.3544,-0.3532,-0.3538,-0.3525,-0.3509,-0.3508,-0.3498,-0.3498,-0.3509,-0.3508,-0.351,-0.3512,-0.3543,-0.3548,-0.3553,0,0,0,0,0,0,-0.3609,-0.3588,-0.3576,-0.3585,-0.3577,-0.3558,-0.3565,-0.3551,-0.3546,-0.3543,-0.3521,-0.3518,-0.3526,-0.3518,-0.3508,-0.3524,-0.3506,-0.3508,-0.3529,-0.3534,-0.3538,-0.354,-0.3481,0,0,0,0,0,-0.3618,-0.3617,-0.3599,-0.3608,-0.3604,-0.3586,-0.3584,-0.3571,-0.3562,-0.3558,-0.3546,-0.3538,-0.3535,-0.3534,-0.3531,-0.3543,-0.354,-0.3551,-0.3555,-0.3558,-0.356,-0.3567,-0.3572,-0.352,-0.352,-0.352,0,0,-0.3635,-0.3623,-0.3624,-0.3614,-0.3606,-0.3607,-0.3583,-0.3584,-0.3585,-0.3558,-0.3562,-0.3553,-0.3542,-0.3551,-0.3554,-0.3545,-0.3574,-0.3561,-0.3564,-0.3564,-0.357,-0.3574,-0.3579,-0.3521,-0.3521,-0.3521,0,0,-0.3666,-0.3657,-0.3664,-0.3657,-0.3645,-0.3633,-0.3634,-0.3619,-0.3612,-0.3615,-0.3595,-0.3596,-0.3592,-0.3585,-0.3582,-0.3611,-0.3596,-0.3611,-0.3633,-0.364,-0.3644,-0.3648,-0.3659,-0.3663,-0.3613,-0.3613,-0.3613,0,-0.3689,-0.3689,-0.367,-0.3673,-0.3669,-0.3645,-0.3653,-0.3646,-0.3634,-0.3633,-0.3622,-0.3618,-0.3608,-0.3616,-0.3623,-0.3621,-0.3622,-0.3613,-0.3645,-0.3648,-0.3651,-0.3662,-0.3666,-0.3615,-0.3615,-0.3615,-0.3614,0,-0.3718,-0.3718,-0.3725,-0.3715,-0.3712,-0.3717,-0.3699,-0.3699,-0.3686,-0.3675,-0.3679,-0.3668,-0.3662,-0.3663,-0.365,-0.3669,-0.3663,-0.3649,-0.363,-0.3659,-0.3668,-0.3672,-0.3618,-0.3617,-0.3616,-0.3616,0,0,-0.3769,-0.3748,-0.3751,-0.3746,-0.3732,-0.3732,-0.3736,-0.3731,-0.3731,-0.3724,-0.3727,-0.3725,-0.3712,-0.3708,-0.3695,-0.3701,-0.3726,-0.3686,-0.3685,-0.3694,-0.3746,-0.3757,-0.3761,-0.3716,-0.3716,-0.3717,-0.3747,0,-0.3798,-0.3804,-0.3787,-0.3798,-0.3798,-0.3776,-0.378,-0.3772,-0.3762,-0.3761,-0.3749,-0.3749,-0.3731,-0.3729,-0.3733,-0.3722,-0.3736,-0.3719,-0.3719,-0.3719,-0.3723,-0.3766,-0.3777,-0.3806,-0.375,-0.3751,-0.3751,0,-0.3832,-0.3827,-0.3838,-0.3824,-0.3823,-0.3827,-0.3821,-0.3821,-0.3811,-0.3803,-0.3799,-0.3784,-0.3787,-0.3769,-0.3774,-0.3764,-0.3762,-0.3757,-0.3758,-0.3757,-0.3737,-0.3767,-0.3815,-0.3819,-0.3757,-0.3756,-0.3756,0,-0.3869,-0.3865,-0.3871,-0.3868,-0.3851,-0.3854,-0.3847,-0.3837,-0.3835,-0.383,-0.3829,-0.3824,-0.3822,-0.3819,-0.3803,-0.3791,-0.381,-0.379,-0.3804,-0.3804,-0.3809,-0.3809,-0.3858,-0.3808,-0.3808,-0.3808,-0.3808,0,-0.3904,-0.3911,-0.3888,-0.3891,-0.3899,-0.388,-0.3889,-0.388,-0.3871,-0.3873,-0.3853,-0.3855,-0.3834,-0.3834,-0.3821,-0.3828,-0.3827,-0.3821,-0.3817,-0.3823,-0.3824,-0.3822,-0.382,-0.3809,-0.3809,-0.3808,-0.3808,0,-0.3946,-0.3931,-0.3936,-0.392,-0.3916,-0.3923,-0.3909,-0.3912,-0.3901,-0.3904,-0.3903,-0.3886,-0.3885,-0.3869,-0.3864,-0.3856,-0.3867,-0.386,-0.3871,-0.3868,-0.3883,-0.3882,-0.3933,-0.3938,-0.3885,-0.3885,-0.3886,0,-0.3969,-0.3975,-0.396,-0.3959,-0.3954,-0.3954,-0.3952,-0.3933,-0.3932,-0.3922,-0.3926,-0.3924,-0.3921,-0.3921,-0.3908,-0.3904,-0.3897,-0.3915,-0.3896,-0.3902,-0.3898,-0.3898,-0.3899,-0.3919,-0.392,-0.392,-0.3921,0,-0.4012,-0.4004,-0.4002,-0.3998,-0.3996,-0.3992,-0.3986,-0.3987,-0.3966,-0.3966,-0.3965,-0.3963,-0.3959,-0.3957,-0.3951,-0.3944,-0.3929,-0.3927,-0.393,-0.3935,-0.3941,-0.3939,-0.3882,-0.3925,-0.3925,-0.3925,-0.3924,-0.3924,-0.4046,-0.405,-0.404,-0.4039,-0.4033,-0.4028,-0.403,-0.4019,-0.4018,-0.4013,-0.4002,-0.4003,-0.3994,-0.3985,-0.398,-0.398,-0.3971,-0.3975,-0.3977,-0.3978,-0.3981,-0.3941,-0.3979,-0.3979,-0.3979,-0.3979,-0.3978,0,-0.4088,-0.4081,-0.408,-0.4073,-0.4072,-0.4058,-0.4051,-0.4051,-0.4052,-0.4045,-0.4042,-0.4042,-0.404,-0.4027,-0.4023,-0.4026,-0.402,-0.4026,-0.4026,-0.4025,-0.3989,-0.3987,-0.4032,-0.4032,-0.4032,-0.4032,-0.4032,-0.4032,-0.411,-0.4117,-0.4108,-0.4111,-0.4103,-0.4104,-0.4101,-0.4097,-0.4091,-0.4091,-0.409,-0.4081,-0.4072,-0.4068,-0.4066,-0.4062,-0.4062,-0.4071,-0.4065,-0.4032,-0.4027,-0.4022,-0.402,-0.4071,-0.4071,-0.4101,-0.4101,-0.4101]}]]